[[{"header":{"parameterUnit":"m.s-1","parameterCategory":1,"la1":30.2991,"la2":30.254,"lo1":-89.0895,"lo2":-89.0444,"dy":0.0017,"dx":0.0017,"nx":28,"ny":28,"refTime":"2025-12-24T09:00:00:Z","depth":0,"parameterNumber":2,"parameterNumberName":"U-component_of_WINDS"},"data":[0,0,0,0,0,0,0,0,0,0,0,0,0,0,0,0,0,0,0,0,0,0,0,0,0,0,0,0,0,0,0,0,0,0,0,0,0,0,0,0,0,0,0,0,0,0,0,0,0,0,0,0,0,0,0,0,0,0,1.2828,1.2829,0,1.2924,1.2925,1.2926,1.296,1.296,1.2959,1.2959,1.3058,1.3061,1.3064,0,0,0,0,0,0,0,0,0,0,0,0,0,1.2674,1.2676,1.2827,1.2829,1.283,1.2924,1.2925,1.2926,1.296,1.296,1.2959,1.2959,1.3057,1.306,1.3064,0,0,0,0,0,0,0,0,0,0,0,0,0,1.2752,1.2677,1.2827,1.2858,1.2862,1.2923,1.2925,1.2927,1.296,1.296,1.2959,1.2959,1.3056,1.306,1.3064,1.3102,0,0,1.3078,1.308,0,0,0,0,0,0,0,0,1.2748,1.2758,1.2852,1.2856,1.286,1.2929,1.2907,1.2986,1.296,1.2923,1.2959,1.2958,1.3015,1.3023,1.3042,1.3107,1.3111,1.3078,1.3081,1.3083,1.3084,0,0,0,0,0,0,0,1.2742,1.2754,1.2866,1.2854,1.2859,1.2867,1.2878,1.2922,1.2971,1.2926,1.2929,1.294,1.3018,1.3038,1.3045,1.3113,1.3078,1.3082,1.3085,1.3087,1.3214,1.3215,0,0,0,0,0,0,1.2732,1.2749,1.2863,1.2869,1.2802,1.2871,1.2882,1.2908,1.2971,1.298,1.294,1.2941,1.3031,1.304,1.3049,1.3098,1.3083,1.3087,1.3089,1.3214,1.3215,1.3215,0,0,0,0,0,0,1.2728,1.2741,1.2859,1.281,1.2825,1.2874,1.2902,1.291,1.293,1.2981,1.299,1.2952,1.3031,1.3042,1.3089,1.3102,1.3089,1.3093,1.3213,1.3214,1.3215,1.3196,0,0,0,0,0,0,1.2724,1.274,1.2755,1.281,1.2828,1.2897,1.2903,1.2912,1.2938,1.294,1.2995,1.3003,1.3031,1.3082,1.3093,1.3108,1.3096,1.3212,1.3213,1.3215,1.3196,1.3196,1.3197,0,0,0,0,0,1.2718,1.2745,1.2755,1.2769,1.2847,1.2898,1.2908,1.294,1.2939,1.2954,1.2987,1.3001,1.3099,1.3087,1.31,1.3115,1.3211,1.3213,1.3215,1.3195,1.3196,1.3197,0,0,0,0,0,0,1.269,1.2753,1.2765,1.281,1.2848,1.2903,1.2923,1.2939,1.2978,1.2978,1.3016,1.3028,1.3072,1.3098,1.3084,1.3156,1.3156,1.316,1.3137,1.3138,1.3139,1.3131,1.31,0,0,0,0,0,1.2689,1.2725,1.2778,1.2813,1.2832,1.2874,1.2898,1.2919,1.296,1.2976,1.3012,1.3051,1.3091,1.3116,1.3155,1.32,1.3213,1.3217,1.3218,1.3218,1.3221,1.3248,1.325,1.3221,1.3221,1.3221,0,0,1.2688,1.2726,1.2747,1.2809,1.2841,1.2877,1.2888,1.2926,1.2953,1.2982,1.3028,1.3056,1.3102,1.3148,1.3171,1.3172,1.3232,1.322,1.322,1.3223,1.325,1.3252,1.3255,1.3222,1.3222,1.3222,0,0,1.2703,1.2736,1.277,1.2802,1.285,1.2879,1.2887,1.294,1.2959,1.3006,1.3029,1.3063,1.313,1.3162,1.3187,1.3217,1.3232,1.3229,1.3231,1.3257,1.3259,1.3261,1.3272,1.3275,1.3232,1.3232,1.3232,0,1.2695,1.2751,1.2785,1.2822,1.2849,1.2877,1.2911,1.2941,1.2999,1.3017,1.3018,1.3104,1.3137,1.3191,1.3199,1.3218,1.3229,1.3222,1.3256,1.3258,1.3261,1.3272,1.3276,1.3231,1.3231,1.3231,1.3231,0,1.2739,1.2777,1.2799,1.2855,1.2884,1.292,1.2959,1.2985,1.3004,1.3032,1.308,1.3122,1.317,1.3184,1.3203,1.3242,1.3241,1.3248,1.3249,1.3263,1.3273,1.3278,1.323,1.323,1.323,1.3231,0,0,1.2739,1.2814,1.2821,1.2848,1.2904,1.2934,1.2971,1.3019,1.304,1.308,1.3113,1.3169,1.3177,1.3205,1.3228,1.3251,1.3272,1.3255,1.3257,1.3257,1.3318,1.3311,1.3316,1.3283,1.3283,1.3284,1.3314,0,1.2762,1.2829,1.2861,1.2915,1.2951,1.2979,1.3011,1.305,1.3077,1.3113,1.3144,1.3183,1.319,1.3207,1.3231,1.3264,1.3285,1.3263,1.3313,1.3314,1.33,1.3321,1.3315,1.334,1.3318,1.3319,1.3319,0,1.2797,1.2838,1.2895,1.2948,1.2964,1.2992,1.3039,1.3072,1.3116,1.3135,1.3168,1.319,1.3231,1.3229,1.3286,1.3271,1.3293,1.3313,1.3315,1.332,1.3317,1.3327,1.3349,1.3353,1.3326,1.3326,1.3325,0,1.2791,1.286,1.2903,1.2925,1.2987,1.3007,1.3034,1.3078,1.3105,1.3146,1.3163,1.3208,1.3233,1.3268,1.3302,1.3297,1.3356,1.3357,1.3373,1.3372,1.3383,1.3382,1.3409,1.3398,1.3398,1.3398,1.3398,0,1.2814,1.2847,1.2901,1.2928,1.2967,1.3004,1.3042,1.3071,1.311,1.3143,1.317,1.32,1.3244,1.328,1.3307,1.335,1.3361,1.3378,1.3385,1.3375,1.3373,1.339,1.3389,1.3399,1.3399,1.3399,1.3398,0,1.2813,1.2851,1.29,1.2955,1.297,1.2997,1.3044,1.3072,1.3101,1.3143,1.3155,1.3201,1.3245,1.3283,1.3341,1.3359,1.3404,1.3412,1.3389,1.3392,1.3406,1.3404,1.3445,1.3452,1.3437,1.3437,1.3437,0,1.2825,1.2851,1.291,1.2934,1.2961,1.3,1.3027,1.3065,1.3093,1.3146,1.3167,1.3213,1.3252,1.3321,1.336,1.3405,1.3414,1.3426,1.3421,1.3411,1.3415,1.3412,1.3415,1.3425,1.3425,1.3425,1.3425,0,1.2841,1.2859,1.2897,1.2943,1.2975,1.3013,1.3052,1.307,1.3115,1.3145,1.3191,1.3221,1.328,1.3326,1.3375,1.3404,1.3422,1.3427,1.3433,1.3423,1.3409,1.3417,1.3389,1.3425,1.3425,1.3425,1.3425,1.3425,1.2847,1.2872,1.2918,1.2961,1.2994,1.3029,1.3058,1.3091,1.313,1.3181,1.3202,1.3248,1.3293,1.3361,1.339,1.3427,1.343,1.3438,1.3441,1.3442,1.3441,1.3403,1.3436,1.3436,1.3436,1.3436,1.3436,0,1.2865,1.2896,1.2935,1.2988,1.3022,1.3037,1.3081,1.3108,1.3148,1.3189,1.3226,1.3279,1.3324,1.3367,1.3414,1.3436,1.3445,1.3447,1.3445,1.3452,1.3435,1.3425,1.3438,1.3438,1.3438,1.3438,1.3438,1.3438,1.2878,1.2922,1.2945,1.3006,1.3037,1.3083,1.3106,1.314,1.3172,1.323,1.3267,1.3295,1.3337,1.3387,1.3429,1.3441,1.3457,1.3455,1.3469,1.3453,1.3453,1.3452,1.3443,1.3459,1.3459,1.3482,1.3483,1.3483]},{"header":{"parameterUnit":"m.s-1","parameterCategory":1,"la1":30.2991,"la2":30.254,"lo1":-89.0895,"lo2":-89.0444,"dy":0.0017,"dx":0.0017,"nx":28,"ny":28,"refTime":"2025-12-24T09:00:00:Z","depth":0,"parameterNumber":3,"parameterNumberName":"V-component_of_WINDS"},"data":[0,0,0,0,0,0,0,0,0,0,0,0,0,0,0,0,0,0,0,0,0,0,0,0,0,0,0,0,0,0,0,0,0,0,0,0,0,0,0,0,0,0,0,0,0,0,0,0,0,0,0,0,0,0,0,0,0,0,-0.042,-0.042,0,-0.0494,-0.0495,-0.0496,-0.0502,-0.0501,-0.05,-0.0499,-0.0579,-0.0582,-0.0585,0,0,0,0,0,0,0,0,0,0,0,0,0,-0.0286,-0.0288,-0.042,-0.0421,-0.0421,-0.0494,-0.0495,-0.0496,-0.0502,-0.0501,-0.05,-0.0499,-0.0578,-0.0582,-0.0585,0,0,0,0,0,0,0,0,0,0,0,0,0,-0.035,-0.0289,-0.0419,-0.0433,-0.0435,-0.0494,-0.0495,-0.0497,-0.0502,-0.0501,-0.0499,-0.0498,-0.0577,-0.0581,-0.0586,-0.0638,0,0,-0.0599,-0.0601,0,0,0,0,0,0,0,0,-0.0347,-0.0355,-0.043,-0.0432,-0.0434,-0.0487,-0.0477,-0.0544,-0.0502,-0.0477,-0.0499,-0.0498,-0.055,-0.0556,-0.0573,-0.0641,-0.0645,-0.0599,-0.0602,-0.0604,-0.0605,0,0,0,0,0,0,0,-0.0342,-0.0352,-0.0449,-0.0431,-0.0434,-0.0436,-0.0444,-0.049,-0.052,-0.0479,-0.0479,-0.0488,-0.0551,-0.0569,-0.0575,-0.0646,-0.0599,-0.0603,-0.0606,-0.0608,-0.0762,-0.0763,0,0,0,0,0,0,-0.0335,-0.0348,-0.0447,-0.0452,-0.0386,-0.044,-0.0449,-0.0472,-0.0519,-0.0525,-0.0489,-0.0488,-0.0562,-0.057,-0.0578,-0.0643,-0.0604,-0.0608,-0.0611,-0.076,-0.0762,-0.0764,0,0,0,0,0,0,-0.0332,-0.0343,-0.0444,-0.04,-0.0413,-0.0443,-0.0469,-0.0474,-0.0492,-0.0527,-0.0532,-0.0502,-0.0562,-0.0572,-0.0623,-0.0645,-0.061,-0.0614,-0.0758,-0.0761,-0.0763,-0.0772,0,0,0,0,0,0,-0.0328,-0.0342,-0.0361,-0.04,-0.0415,-0.0486,-0.0471,-0.0476,-0.0499,-0.0498,-0.054,-0.0546,-0.0561,-0.0616,-0.0627,-0.0651,-0.0617,-0.0757,-0.0759,-0.0762,-0.0769,-0.0774,-0.0778,0,0,0,0,0,-0.0323,-0.0362,-0.0362,-0.0374,-0.044,-0.0487,-0.0496,-0.0512,-0.0501,-0.0521,-0.0543,-0.0545,-0.0641,-0.0621,-0.0634,-0.0659,-0.0755,-0.0759,-0.0762,-0.0768,-0.0773,-0.0777,0,0,0,0,0,0,-0.0326,-0.0367,-0.0368,-0.042,-0.045,-0.0488,-0.0514,-0.0517,-0.0552,-0.055,-0.0569,-0.0579,-0.0629,-0.0649,-0.0627,-0.0712,-0.0697,-0.0703,-0.0697,-0.0703,-0.0707,-0.0701,-0.0621,0,0,0,0,0,-0.0332,-0.0366,-0.0401,-0.0443,-0.0458,-0.0483,-0.0505,-0.0514,-0.0547,-0.056,-0.0586,-0.0618,-0.0656,-0.068,-0.0717,-0.0772,-0.0782,-0.0796,-0.08,-0.0803,-0.0808,-0.084,-0.0847,-0.0774,-0.0774,-0.0774,0,0,-0.0346,-0.0373,-0.0393,-0.0445,-0.0469,-0.0505,-0.0494,-0.0533,-0.056,-0.0566,-0.0615,-0.0636,-0.0673,-0.0727,-0.0752,-0.0745,-0.083,-0.0807,-0.081,-0.0813,-0.0844,-0.0851,-0.0857,-0.0777,-0.0776,-0.0776,0,0,-0.039,-0.0413,-0.0451,-0.0476,-0.0512,-0.0529,-0.0538,-0.0576,-0.0589,-0.0639,-0.0644,-0.0678,-0.0742,-0.0769,-0.0791,-0.0845,-0.0848,-0.0856,-0.0878,-0.0908,-0.0914,-0.0919,-0.0939,-0.0946,-0.0861,-0.0861,-0.0861,0,-0.0403,-0.0456,-0.0471,-0.0509,-0.0532,-0.0538,-0.0578,-0.0601,-0.0648,-0.0665,-0.0656,-0.0737,-0.0763,-0.0823,-0.0836,-0.0854,-0.0866,-0.0852,-0.0912,-0.0917,-0.0922,-0.0942,-0.0949,-0.0862,-0.0862,-0.0862,-0.0862,0,-0.047,-0.0507,-0.0534,-0.0578,-0.0604,-0.0643,-0.0665,-0.069,-0.0697,-0.0715,-0.0766,-0.0797,-0.084,-0.0855,-0.0864,-0.0917,-0.0912,-0.0908,-0.0893,-0.093,-0.0948,-0.0956,-0.0863,-0.0863,-0.0863,-0.0862,0,0,-0.0518,-0.057,-0.0579,-0.06,-0.064,-0.067,-0.071,-0.0751,-0.0772,-0.0805,-0.0839,-0.0893,-0.089,-0.0915,-0.0926,-0.0953,-0.0995,-0.0945,-0.0946,-0.0954,-0.1056,-0.106,-0.1068,-0.0997,-0.0998,-0.0999,-0.1053,0,-0.0567,-0.0636,-0.0651,-0.0711,-0.0746,-0.0752,-0.0787,-0.0817,-0.0835,-0.0868,-0.0889,-0.0927,-0.0919,-0.0934,-0.0961,-0.0984,-0.1016,-0.098,-0.103,-0.1032,-0.1021,-0.1078,-0.1081,-0.1131,-0.1061,-0.1062,-0.1063,0,-0.0633,-0.0665,-0.0729,-0.0766,-0.0781,-0.0812,-0.0851,-0.0882,-0.0916,-0.0928,-0.0956,-0.0964,-0.1007,-0.099,-0.105,-0.1025,-0.1047,-0.1062,-0.1064,-0.107,-0.105,-0.1085,-0.1147,-0.1155,-0.1074,-0.1073,-0.1073,0,-0.0661,-0.0722,-0.0768,-0.0785,-0.0829,-0.085,-0.087,-0.0903,-0.0926,-0.0961,-0.0977,-0.1017,-0.1039,-0.107,-0.109,-0.1075,-0.1149,-0.1133,-0.116,-0.116,-0.1176,-0.1174,-0.1242,-0.1189,-0.1189,-0.1189,-0.1188,0,-0.0714,-0.0753,-0.0781,-0.0809,-0.0853,-0.0871,-0.0914,-0.0934,-0.0963,-0.0997,-0.1005,-0.1036,-0.106,-0.1095,-0.1111,-0.1159,-0.1169,-0.118,-0.1184,-0.1179,-0.1178,-0.1194,-0.1191,-0.1191,-0.119,-0.119,-0.1189,0,-0.0754,-0.0774,-0.0825,-0.0862,-0.0872,-0.0903,-0.0936,-0.0964,-0.0982,-0.1024,-0.1035,-0.1064,-0.1106,-0.1128,-0.1181,-0.1192,-0.1245,-0.1247,-0.1233,-0.1235,-0.1261,-0.1259,-0.1342,-0.1354,-0.1292,-0.1293,-0.1293,0,-0.0787,-0.0816,-0.0857,-0.0879,-0.0898,-0.0934,-0.0958,-0.0977,-0.1002,-0.1044,-0.1068,-0.1109,-0.1144,-0.1211,-0.1237,-0.1278,-0.1281,-0.1307,-0.1287,-0.1282,-0.1282,-0.128,-0.1284,-0.1311,-0.1312,-0.1312,-0.1312,0,-0.0843,-0.0851,-0.0885,-0.0923,-0.0951,-0.0982,-0.1013,-0.1031,-0.1055,-0.1083,-0.1125,-0.1151,-0.1205,-0.1247,-0.1289,-0.1311,-0.1316,-0.1318,-0.1327,-0.1323,-0.1314,-0.132,-0.1243,-0.1317,-0.1316,-0.1316,-0.1316,-0.1315,-0.088,-0.0907,-0.094,-0.0977,-0.1002,-0.1031,-0.1059,-0.1081,-0.1116,-0.116,-0.1169,-0.1214,-0.1248,-0.1306,-0.1329,-0.1365,-0.136,-0.1372,-0.1375,-0.1378,-0.138,-0.1308,-0.1373,-0.1373,-0.1373,-0.1373,-0.1372,0,-0.0937,-0.0958,-0.0993,-0.1035,-0.1065,-0.1066,-0.11,-0.1125,-0.1164,-0.1195,-0.1229,-0.1278,-0.1319,-0.1348,-0.139,-0.1414,-0.1417,-0.1424,-0.1423,-0.1428,-0.1381,-0.137,-0.1421,-0.1421,-0.1421,-0.1421,-0.1421,-0.1421,-0.097,-0.1016,-0.1028,-0.1087,-0.1109,-0.1151,-0.1171,-0.1198,-0.1223,-0.1276,-0.131,-0.1329,-0.136,-0.1404,-0.1442,-0.145,-0.1465,-0.1472,-0.148,-0.1436,-0.1431,-0.1426,-0.1416,-0.1475,-0.1475,-0.1524,-0.1525,-0.1525]}]]